Arlington, WA
on Wednesday, November 7, 2012

Wednesday
Previous Day Next Day
Daily Summary
 ActualAverageRecord
Temperature
Mean Temperature °F °F  
Max Temperature 53°F 55°F 64°F (1999)
Min Temperature 33°F 38°F 19°F (2003)
Degree Days
Heating Degree Days 22    
Moisture
Dew Point 39°F   
Average Humidity 82    
Maximum Humidity 93    
Minimum Humidity 58    
Precipitation
Precipitation 0.09 in in in ()
Wind
Wind Speed 3 mph   
Max Wind Speed 8 mph   
Max Gust Speed mph   
Visibility 10 miles   
Events     
Averages and records for this station are not official NWS values.
Key: T is trace of precipitation, MM is missing value
Source: NWS Daily Summary
Seasonal Weather Averages
Time(PST)TemperatureDew PointHumidity Pressure Visibility Wind DirectionWind SpeedGust SpeedPrecipitationEvents Conditions
12:15 AM 50.0°F 42.8°F 76% 30.04 in 10.0 miles NW 5.8 mph - N/A   Overcast
12:55 AM 48.2°F 44.6°F 87% 30.04 in 7.0 miles Calm Calm - 0.01 in   Overcast
1:15 AM 48.2°F 44.6°F 87% 30.04 in 10.0 miles North 3.5 mph - N/A   Overcast
1:35 AM 46.4°F 44.6°F 93% 30.06 in 7.0 miles Calm Calm - N/A   Overcast
1:55 AM 46.4°F 42.8°F 87% 30.07 in 10.0 miles SSW 4.6 mph - 0.02 in   Overcast
2:15 AM 46.4°F 44.6°F 93% 30.08 in 9.0 miles SSE 6.9 mph - 0.03 in   Overcast
2:35 AM 46.4°F 42.8°F 87% 30.07 in 10.0 miles ESE 3.5 mph - 0.04 in   Overcast
2:55 AM 46.4°F 42.8°F 87% 30.08 in 10.0 miles Calm Calm - 0.04 in   Overcast
3:15 AM 44.6°F 42.8°F 93% 30.09 in 10.0 miles Calm Calm - N/A   Overcast
3:35 AM 44.6°F 42.8°F 93% 30.09 in 10.0 miles Calm Calm - N/A   Mostly Cloudy
3:55 AM 42.8°F 39.2°F 87% 30.09 in 10.0 miles Calm Calm - N/A   Scattered Clouds
4:15 AM 42.8°F 39.2°F 87% 30.10 in 9.0 miles Calm Calm - N/A   Mostly Cloudy
4:35 AM 42.8°F 41.0°F 93% 30.10 in 10.0 miles Calm Calm - N/A   Overcast
4:55 AM 42.8°F 41.0°F 93% 30.11 in 10.0 miles Calm Calm - N/A   Mostly Cloudy
5:15 AM 42.8°F 41.0°F 93% 30.11 in 10.0 miles Calm Calm - N/A   Mostly Cloudy
5:35 AM 42.8°F 39.2°F 87% 30.11 in 10.0 miles Calm Calm - N/A   Overcast
5:55 AM 42.8°F 39.2°F 87% 30.12 in 3.0 miles SSW 3.5 mph - N/A   Overcast
6:15 AM 42.8°F 39.2°F 87% 30.13 in 0.8 miles South 3.5 mph - N/A   Overcast
6:35 AM 42.8°F 39.2°F 87% 30.13 in 2.5 miles South 4.6 mph - N/A   Overcast
6:55 AM 42.8°F 41.0°F 93% 30.13 in 10.0 miles SSE 4.6 mph - N/A   Mostly Cloudy
7:15 AM 42.8°F 41.0°F 93% 30.14 in 10.0 miles SSE 4.6 mph - N/A   Overcast
7:35 AM 44.6°F 41.0°F 87% 30.14 in 10.0 miles Calm Calm - N/A   Overcast
7:55 AM 44.6°F 41.0°F 87% 30.15 in 10.0 miles Calm Calm - N/A   Overcast
8:15 AM 44.6°F 41.0°F 87% 30.15 in 10.0 miles Calm Calm - N/A   Mostly Cloudy
8:35 AM 44.6°F 41.0°F 87% 30.15 in 10.0 miles Calm Calm - N/A   Mostly Cloudy
8:55 AM 44.6°F 42.8°F 93% 30.15 in 10.0 miles Calm Calm - N/A   Scattered Clouds
9:15 AM 46.4°F 42.8°F 87% 30.15 in 10.0 miles Calm Calm - N/A   Overcast
9:35 AM 44.6°F 42.8°F 93% 30.16 in 10.0 miles SSW 4.6 mph - N/A   Overcast
9:55 AM 44.6°F 39.2°F 81% 30.16 in 10.0 miles SSW 4.6 mph - 0.01 in   Overcast
10:15 AM 44.6°F 41.0°F 87% 30.16 in 10.0 miles SSE 6.9 mph - 0.01 in   Overcast
10:35 AM 44.6°F 39.2°F 81% 30.16 in 10.0 miles South 3.5 mph - 0.01 in   Overcast
10:55 AM 44.6°F 41.0°F 87% 30.16 in 10.0 miles South 3.5 mph - 0.01 in   Overcast
11:15 AM 46.4°F 41.0°F 81% 30.15 in 10.0 miles Calm Calm - N/A   Overcast
11:35 AM 48.2°F 42.8°F 82% 30.14 in 10.0 miles Calm Calm - N/A   Mostly Cloudy
11:55 AM 48.2°F 42.8°F 82% 30.14 in 10.0 miles South 3.5 mph - N/A   Mostly Cloudy
12:15 PM 48.2°F 39.2°F 71% 30.14 in 10.0 miles Calm Calm - N/A   Scattered Clouds
12:35 PM 50.0°F 39.2°F 66% 30.13 in 10.0 miles Calm Calm - N/A   Clear
12:55 PM 51.8°F 39.2°F 62% 30.13 in 10.0 miles Calm Calm - N/A   Clear
1:15 PM 51.8°F 37.4°F 58% 30.13 in 10.0 miles Calm Calm - N/A   Clear
1:35 PM 51.8°F 37.4°F 58% 30.13 in 10.0 miles Calm Calm - N/A   Clear
1:55 PM 51.8°F 37.4°F 58% 30.12 in 10.0 miles South 4.6 mph - N/A   Partly Cloudy
2:15 PM 53.6°F 39.2°F 58% 30.12 in 10.0 miles SE 6.9 mph - N/A   Mostly Cloudy
2:35 PM 51.8°F 37.4°F 58% 30.11 in 10.0 miles South 5.8 mph - N/A   Overcast
2:55 PM 51.8°F 37.4°F 58% 30.11 in 10.0 miles SE 6.9 mph - N/A   Mostly Cloudy
3:15 PM 51.8°F 37.4°F 58% 30.10 in 10.0 miles SSE 4.6 mph - N/A   Mostly Cloudy
3:35 PM 50.0°F 37.4°F 62% 30.10 in 10.0 miles East 5.8 mph - N/A   Mostly Cloudy
3:55 PM 48.2°F 37.4°F 66% 30.10 in 10.0 miles NE 8.1 mph - N/A   Mostly Cloudy
4:15 PM 48.2°F 37.4°F 66% 30.10 in 10.0 miles NE 5.8 mph - N/A   Mostly Cloudy
4:35 PM 46.4°F 37.4°F 71% 30.09 in 10.0 miles NE 6.9 mph - N/A   Mostly Cloudy
4:55 PM 44.6°F 37.4°F 76% 30.09 in 10.0 miles NNE 6.9 mph - N/A   Scattered Clouds
5:15 PM 44.6°F 35.6°F 71% 30.08 in 10.0 miles NNE 6.9 mph - N/A   Scattered Clouds
5:35 PM 42.8°F 35.6°F 76% 30.07 in 10.0 miles NNE 8.1 mph - N/A   Scattered Clouds
5:55 PM 42.8°F 35.6°F 76% 30.07 in 10.0 miles North 3.5 mph - N/A   Mostly Cloudy
6:15 PM 42.8°F 37.4°F 81% 30.07 in 10.0 miles Calm Calm - N/A   Overcast
6:35 PM 42.8°F 37.4°F 81% 30.07 in 10.0 miles WNW 3.5 mph - N/A   Overcast
6:55 PM 42.8°F 37.4°F 81% 30.07 in 10.0 miles Calm Calm - N/A   Overcast
7:15 PM 42.8°F 37.4°F 81% 30.06 in 10.0 miles Calm Calm - N/A   Overcast
7:35 PM 41.0°F 35.6°F 81% 30.06 in 10.0 miles Calm Calm - N/A   Mostly Cloudy
7:55 PM 39.2°F 35.6°F 87% 30.05 in 10.0 miles NE 4.6 mph - N/A   Partly Cloudy
8:15 PM 39.2°F 35.6°F 87% 30.05 in 10.0 miles NNE 3.5 mph - N/A   Clear
8:35 PM 37.4°F 33.8°F 87% 30.04 in 10.0 miles Calm Calm - N/A   Clear
8:55 PM 39.2°F 35.6°F 87% 30.04 in 10.0 miles Calm Calm - N/A   Clear
9:15 PM 37.4°F 35.6°F 93% 30.04 in 9.0 miles Calm Calm - N/A   Scattered Clouds
9:35 PM 37.4°F 35.6°F 93% 30.04 in 10.0 miles Calm Calm - N/A   Overcast
9:55 PM 37.4°F 35.6°F 93% 30.03 in 10.0 miles Calm Calm - N/A   Scattered Clouds
10:15 PM 35.6°F 33.8°F 93% 30.02 in 10.0 miles Calm Calm - N/A   Clear
10:35 PM 37.4°F 33.8°F 87% 30.01 in 10.0 miles NE 3.5 mph - N/A   Clear
10:55 PM 35.6°F 32.0°F 87% 30.00 in 10.0 miles Calm Calm - N/A   Clear
11:15 PM 35.6°F 32.0°F 87% 29.99 in 10.0 miles Calm Calm - N/A   Clear
11:35 PM 33.8°F 30.2°F 87% 29.98 in 10.0 miles Calm Calm - N/A   Clear
11:55 PM 33.8°F 32.0°F 93% 29.98 in 10.0 miles Calm Calm - N/A   Clear
Moon Phase
Nov. 07 Nov. 13 Nov. 20 Nov. 28 Dec. 06
Sunrise:07:04 AM (PST) Moon Rise:No Moon Rise/
Sunset:04:39 PM (PST) Moon Set:01:19 PM (PST)11/7

Copyright © 2014 The Weather Underground, Inc.